ALA3412 UGTB-UWLL

Flight info

Callsign ALA3412
Flight time N/A
Altitude 36000
Route LAPTO N82 NIRGA/K0839F370 R807 UROBO P135 DAFOS T789 NEPNI NEPNI1E
Aircraft A320/M-SDE3FGHIRWY/LB1

Departure

Time N/A
Airport Tbilisi International Airport (UGTB)

Arrival

Time 2026-04-30 18:22
Airport Ulyanovsk Baratayevka Airport (UWLL)
Time Latitude Longitude Altitude Speed Heading
2026-04-30 17:39 49.75528 45.17646 35156 ft 502 kts 12°
2026-04-30 17:42 50.09157 45.31952 35140 ft 501 kts
2026-04-30 17:43 50.26226 45.37450 35138 ft 502 kts
2026-04-30 17:44 50.46685 45.44559 35130 ft 501 kts
2026-04-30 17:47 50.77311 45.55192 35118 ft 501 kts 10°
2026-04-30 17:48 51.00834 45.63631 35119 ft 501 kts 12°
2026-04-30 17:49 51.13691 45.72350 35119 ft 504 kts 24°
2026-04-30 17:50 51.25141 45.80953 35109 ft 504 kts 24°
2026-04-30 17:52 51.43101 45.94531 35109 ft 505 kts 24°
2026-04-30 17:54 51.71453 46.17083 35111 ft 506 kts 27°
2026-04-30 17:56 51.96504 46.37913 35109 ft 506 kts 26°
2026-04-30 17:58 52.15246 46.53675 35109 ft 506 kts 27°
2026-04-30 18:00 52.40284 46.74979 35110 ft 508 kts 27°
2026-04-30 18:01 52.55976 46.88460 35109 ft 509 kts 27°
2026-04-30 18:02 52.74780 47.04750 35110 ft 510 kts 27°
2026-04-30 18:04 52.93537 47.21184 31367 ft 501 kts 28°
2026-04-30 18:05 53.06026 47.32205 26443 ft 506 kts 27°
2026-04-30 18:06 53.18056 47.42904 22534 ft 472 kts 27°
2026-04-30 18:07 53.29215 47.52871 19686 ft 441 kts 27°
2026-04-30 18:08 53.37315 47.60181 17733 ft 437 kts 26°
2026-04-30 18:09 53.47795 47.69584 15425 ft 415 kts 23°
2026-04-30 18:10 53.58218 47.76529 13331 ft 393 kts 19°
2026-04-30 18:11 53.68314 47.83246 11230 ft 378 kts 20°
2026-04-30 18:11 53.75020 47.88223 10833 ft 321 kts 13°
2026-04-30 18:12 53.81138 47.91157 9504 ft 292 kts 14°
2026-04-30 18:13 53.85034 47.93014 8509 ft 289 kts 15°
2026-04-30 18:13 53.90070 47.95407 7150 ft 281 kts 15°
2026-04-30 18:14 53.94431 47.97505 6179 ft 274 kts 15°
2026-04-30 18:15 53.99846 48.00112 4539 ft 269 kts 15°
2026-04-30 18:15 54.04740 48.02469 4201 ft 215 kts 16°
2026-04-30 18:16 54.07367 48.03727 4032 ft 179 kts 18°
2026-04-30 18:16 54.09577 48.04793 3878 ft 157 kts 18°
2026-04-30 18:17 54.10621 48.05298 3817 ft 155 kts 18°
2026-04-30 18:17 54.11583 48.05943 3753 ft 145 kts 31°
2026-04-30 18:17 54.13229 48.07770 3372 ft 139 kts 35°
2026-04-30 18:18 54.14043 48.08661 3188 ft 139 kts 34°
2026-04-30 18:18 54.14853 48.09537 3006 ft 136 kts 34°
2026-04-30 18:18 54.15659 48.10400 2827 ft 137 kts 34°
2026-04-30 18:18 54.16466 48.11264 2645 ft 137 kts 34°
2026-04-30 18:19 54.17268 48.12122 2464 ft 136 kts 34°
2026-04-30 18:19 54.18061 48.12969 2283 ft 136 kts 34°
2026-04-30 18:19 54.18864 48.13828 2105 ft 136 kts 34°
2026-04-30 18:19 54.19664 48.14683 1923 ft 135 kts 33°
2026-04-30 18:20 54.20467 48.15539 1745 ft 136 kts 34°
2026-04-30 18:20 54.21266 48.16395 1564 ft 135 kts 33°
2026-04-30 18:20 54.22050 48.17233 1385 ft 134 kts 33°
2026-04-30 18:20 54.22840 48.18078 1209 ft 134 kts 33°
2026-04-30 18:21 54.23643 48.18933 1020 ft 137 kts 32°
2026-04-30 18:21 54.24455 48.19801 797 ft 138 kts 32°
2026-04-30 18:21 54.25264 48.20668 589 ft 137 kts 32°
2026-04-30 18:21 54.26063 48.21527 455 ft 128 kts 32°
2026-04-30 18:22 54.26702 48.22211 430 ft 86 kts 32°
2026-04-30 18:22 54.27534 48.23100 404 ft 43 kts 33°
2026-04-30 18:22 54.27652 48.23397 400 ft 29 kts 78°
2026-04-30 18:23 54.27670 48.23527 399 ft 0 kts 75°
2026-04-30 18:23 54.27672 48.23535 398 ft 1 kts 75°
2026-04-30 18:23 54.27684 48.23639 397 ft 20 kts 78°
2026-04-30 18:23 54.27772 48.23804 394 ft 20 kts 33°
2026-04-30 18:24 54.28055 48.24111 386 ft 27 kts 32°
2026-04-30 18:24 54.28124 48.24184 384 ft 10 kts 27°
2026-04-30 18:24 54.28203 48.24138 383 ft 26 kts 308°
2026-04-30 18:25 54.28321 48.23806 384 ft 30 kts 302°
2026-04-30 18:25 54.28504 48.23276 383 ft 22 kts 298°
2026-04-30 18:25 54.28547 48.23119 383 ft 0 kts 301°
2026-04-30 18:28 54.28550 48.23111 383 ft 0 kts 304°
2026-04-30 18:28 54.28552 48.23106 383 ft 5 kts 304°
2026-04-30 18:28 54.28635 48.23202 382 ft 9 kts 109°
2026-04-30 18:29 54.28627 48.23220 382 ft 0 kts 126°